Location: *
(31.7833°N, 35.2167°E)
Time: 01:50:29
(UTC+00:00)

Daily predictions for brighter satellites

Satellite Brightness Start Highest point End
(mag) Time Altitude Azimuth Time Altitude Azimuth Time Altitude Azimuth
USA 267 4.1 00:42:06 10° NNE 00:46:47 38° N 00:46:47 38° N
Cosmos 1727 Rocket 4.4 00:57:22 51° SE 00:58:39 61° E 01:04:52 10° NNE
Cosmos 540 Rocket 4.4 01:00:50 42° ESE 01:00:59 42° ESE 01:05:51 10° NNE
Cosmos 2360 Rocket 3.0 01:05:46 42° SE 01:06:54 48° ESE 01:12:19 10° NNE
IDEFIX/ARIANE 42P 4.2 01:08:17 10° N 01:10:25 24° N 01:10:25 24° N
PAYLOAD A 4.4 01:10:24 10° NNE 01:15:00 54° E 01:15:13 54° ESE
Cosmos 44 Rocket 3.7 01:24:48 52° N 01:24:48 52° N 01:28:30 10° NNE
Cosmos 2322 Rocket 2.5 01:26:32 51° NW 01:26:32 51° NW 01:31:19 10° N
Cosmos 2263 Rocket 2.0 01:22:25 10° NNW 01:28:05 81° WSW 01:33:46 10° SSE
Meteor 1-11 Rocket 4.0 01:22:54 10° N 01:28:34 65° E 01:34:05 10° SSE
Meteor 1-27 Rocket 3.7 01:27:37 46° S 01:29:30 88° W 01:35:27 10° N
Cosmos 1707 Rocket 4.4 01:37:27 38° NNW 01:37:27 38° NNW 01:40:14 10° N
SL-16 R/B 3.1 01:38:09 32° NW 01:38:09 32° NW 01:42:15 10° N
Hubble Space Telescope 3.2 01:39:00 13° SSE 01:39:26 13° SSE 01:41:25 10° SE
Cosmos 2237 4.1 01:42:43 50° SW 01:44:08 69° WNW 01:49:50 10° NNE
Cosmos 1666 4.4 01:42:03 10° N 01:43:29 22° N 01:43:29 22° N
Cosmos 1437 Rocket 4.0 01:42:39 10° SSE 01:46:10 39° E 01:49:44 10° NNE
Cosmos 2173 Rocket 4.4 01:44:54 10° N 01:51:14 67° E 01:57:33 10° SSE
Cosmos 2219 Rocket 3.4 01:50:17 10° S 01:55:34 42° ESE 02:00:53 10° NE
Cosmos 1536 2.7 01:53:18 10° N 01:57:23 85° W 02:01:25 10° S
CZ-2C R/B 2.5 01:52:47 10° N 01:57:53 59° WNW 02:00:37 27° SW
Cosmos 1898 Rocket 3.4 01:52:47 10° NNW 01:58:00 66° WSW 02:03:15 10° S
Cosmos 1733 Rocket 3.3 01:54:09 10° N 01:58:28 68° E 02:02:44 10° SSE
Meteor 2-20 4.4 01:54:54 10° S 02:01:01 87° E 02:07:10 10° N
BREEZE-M DEB (TANK) 4.4 01:58:35 25° WNW 02:01:02 30° NW 02:04:32 10° NNE
SL-8 R/B 3.5 02:00:53 31° NW 02:03:07 78° SW 02:07:52 10° SE
ALOS 2.9 01:59:20 10° NNE 02:03:55 56° E 02:08:29 10° S
Cosmos 858 Rocket 4.3 02:00:33 10° NNW 02:05:45 81° WSW 02:10:56 10° SSE
Landsat 5 3.9 02:01:57 10° S 02:06:15 44° W 02:10:32 10° NNW
SL-19 R/B 4.2 02:04:44 10° N 02:08:59 75° WNW 02:11:32 20° SSW
Yuri Rocket 3.7 02:07:47 30° SW 02:09:30 45° SSE 02:14:23 10° E
Cosmos 1862 Rocket 3.6 02:07:39 19° SSW 02:10:35 56° W 02:14:53 10° N
COSMOS 2428 3.5 02:08:03 10° S 02:13:35 54° ESE 02:19:08 10° NNE
PSLV R/B 4.3 02:10:08 10° NNW 02:13:48 30° WNW 02:14:01 30° WNW
Cosmos 2208 Rocket 4.4 02:13:15 25° WSW 02:15:43 41° WNW 02:20:38 10° N
H-2A R/B 2.7 02:12:23 10° SSW 02:16:19 34° W 02:20:22 10° NNW
Gbstr 26 Del rocket 4.3 02:09:02 10° NW 02:16:58 86° SW 02:23:45 10° SE
Cosmos 841 Rocket 4.3 02:16:21 26° W 02:17:50 31° WNW 02:22:27 10° N
Cosmos 1937 Rocket 3.4 02:14:07 10° NNW 02:19:09 57° WSW 02:24:10 10° S
Cosmos 2016 Rocket 4.1 02:16:34 10° N 02:22:41 79° E 02:28:46 10° S
Cosmos 2333 Rocket 2.3 02:17:02 10° SSW 02:22:47 86° ESE 02:28:34 10° NNE
ERS-2 2.3 02:20:37 10° S 02:24:07 45° W 02:27:39 10° NNW
Cosmos 2061 Rocket 4.2 02:18:08 10° N 02:24:36 81° E 02:31:00 10° S
Cosmos 2322 3.7 02:23:06 10° SSW 02:28:42 63° WNW 02:34:19 10° NNE
X-37B 1.3 02:27:32 14° NW 02:30:07 51° NNE 02:33:13 10° ESE
Cosmos 1743 2.6 02:29:41 10° N 02:33:29 81° W 02:37:17 10° S
NOSS 3-4 (A) 4.0 02:26:20 10° NNW 02:33:42 89° ENE 02:41:45 10° SSE
NOSS 3-4 (C) 4.0 02:26:26 10° NNW 02:33:49 88° ENE 02:41:52 10° SSE
ADEOS Rocket 3.2 02:28:41 10° S 02:35:31 58° WSW 02:41:42 10° NNW
METEOR-M 4.1 02:31:49 10° N 02:37:10 78° WNW 02:42:29 10° SSW
Cosmos 1864 Rocket 4.4 02:37:42 10° N 02:43:56 81° W 02:50:04 10° S
Cosmos 1544 3.0 02:40:56 10° N 02:44:31 90° WNW 02:48:05 10° S
Cosmos 1725 Rocket 3.9 02:38:22 10° N 02:44:33 83° W 02:50:43 10° S
Meteor PRIRODA 4.0 02:40:56 10° NNE 02:44:33 68° ESE 02:48:08 10° S
CZ-4B R/B 1.6 02:42:25 10° S 02:45:22 39° W 02:48:25 10° NNW
DEBRIS 3.6 02:42:25 10° NW 02:45:39 84° SW 02:56:16 10° SE
FALCON 9 DEB 4.1 02:42:54 10° SSW 02:45:52 41° SE 02:48:51 10° ENE
Meteor 1-18 Rocket 4.2 02:41:13 10° SSW 02:46:41 64° W 02:52:12 10° N
Meteor 1-19 Rocket 4.1 02:42:15 10° SSW 02:47:39 68° W 02:53:13 10° N
ADEOS 4.1 02:42:59 10° N 02:47:43 36° WNW 02:52:26 10° SW
COSMO-SKYMED 1 3.4 02:44:02 10° SSE 02:48:15 55° ENE 02:52:30 10° N
Cosmos 2360 Rocket 3.6 02:47:36 12° W 02:51:06 19° WNW 02:55:07 10° NNW
Cosmos 1975 3.0 02:52:02 10° N 02:56:02 76° E 02:59:59 10° S
ATLAS 2AS CENTAUR R/B 2.7 02:50:11 10° NNW 02:57:23 76° WSW 03:03:58 10° SSE
FENGYUN 3A 4.1 02:53:15 10° N 02:58:14 39° WNW 03:03:12 10° SW
FALCON 9 DEB 3.2 02:56:29 10° SW 02:59:35 66° SE 03:02:40 10° NE
Cosmos 1242 Rocket 3.6 02:56:51 10° S 03:00:24 50° E 03:03:58 10° NNE
USA 234 3.3 02:54:35 10° SE 03:01:06 72° SW 03:07:38 10° NW
SAR-Lupe-4 4.2 02:58:03 10° SSW 03:01:19 34° W 03:04:38 10° NNW
Cosmos 1802 Rocket 4.5 02:55:51 10° NNW 03:01:31 38° W 03:07:15 10° SSW
